ZHUHAI-1 02 (CAS 4B) (42759 NORAD) Tracking and Keplerian Element Data

This shows tracking and keplerian element data for the satellite.

Feedback or suggestion? Click here.




ElementValue
Catalog42759
NameZHUHAI-1 02 (CAS 4B)
Epoch Orbit8320
Epoch Day351.84521472
Epoch Year2018
RAAN154.9047
Inclination43.0176
Eccentricity0.0009872
Argument of Perigee185.8976
Mean Anonmoly280.8095
Mean Motion15.0944259
Decay Rate1.4E-07
L11 42759U 17034B 18351.84521472 .00000014 00000-0 14429-4 0 9992
L22 42759 43.0176 154.9047 0009872 185.8976 280.8095 15.09442590 83204

Live tracking and technical data element details for ZHUHAI-1 02 (CAS 4B) (NORAD 42759). ZHUHAI-1 02 (CAS 4B) can be tracked NOW for your location showing map with azimuth and elevation plus other details from your city location.

Track the satellite on the map from your city or location and see movement details for azimuth, elevation, latitude, longitude, range, height, and movement on the map or in text.







IsCatalogInMostPopularTable: catalog: 42759, numindb: 206
Update: records affected: 1



GetName: 42759 ZHUHAI-1 02 (CAS 4B)

Hit Count: updated at: Tue, 18 Dec 2018 21:26:51 GMT